A/2019 S4

Japanese version
Home page
Updated on January 20, 2020

---------------------------------------------------------------------

* Profile

Discovery Date September 17, 2019
Magnitude 20.3 mag
Discoverer Mt. Lemmon Survey

* Pictures

* Orbital Elements

Epoch 2020 Apr. 21.0 TT = JDT 2458960.5
T 2020 Apr. 7.95046 TT                                  Williams
q   3.4416459            (2000.0)            P               Q
z  +0.0041877      Peri.   71.35694     +0.17415010     -0.41762306
 +/-0.0000124      Node    63.16771     -0.12881222     -0.90749336
e   0.9855875      Incl.   92.02365     +0.97625773     -0.04524127
H   14.5
From 67 observations 2019 Sept. 17-2020 Jan. 1, mean residual 0".4.

* Magnitudes Graph

        H = 14.5  G = 0.15

---------------------------------------------------------------------

The orbital elements are published on M.P.E.C. 2020-A105.
The magnitudes graphs are made with Comet for Windows.

---------------------------------------------------------------------

Copyright(C) Seiichi Yoshida (comet@aerith.net). All rights reserved.